Fort Leonard Wood, MO

10:32 PM CDT on August 23, 2017 (GMT -0500)
Waynesville Regional At Forney Field

Weather History for KTBN - July, 2012

Change the Weather History Date:

Monday, July 23, 2012

  Actual Average Record
Temperature  
Mean Temperature 88 °F -  
Max Temperature 102 °F 85 °F 102 °F (2005)
Min Temperature 76 °F 69 °F 57 °F (2007)
Cooling Degree Days 24    
Growing Degree Days 38 (Base 50)    
Moisture  
Dew Point 67 °F    
Average Humidity 53    
Maximum Humidity 84    
Minimum Humidity 26    
Precipitation  
Precipitation 0.00 in - - ()
Sea Level Pressure  
Sea Level Pressure 30.00 in    
Wind  
Wind Speed 6 mph (South)    
Max Wind Speed 12 mph    
Max Gust Speed 17 mph    
Visibility 10 miles    
Events      
Averages and records for this station are not official NWS values.
T = Trace of Precipitation, MM = Missing Value Source: NWS Daily Summary

Daily Weather History Graph

Daily Weather History Graph

Search for Another Location

Airport or City:

Trip Planner

Search our weather history database for the weather conditions in past years. The results will help you decide how hot, cold, wet, or windy it might be!

Date:

Astronomy

Jul. 23, 2012 Rise Set
Actual Time 6:05 AM CDT 8:24 PM CDT
Civil Twilight 5:35 AM CDT 8:54 PM CDT
Nautical Twilight 4:58 AM CDT 9:30 PM CDT
Astronomical Twilight 4:18 AM CDT 10:10 PM CDT
Moon 10:49 AM CDT (7/23) 10:46 PM CDT (7/23)
Length of Visible Light 15h 18m
Length of Day
14h 19m
Waxing Crescent, 22% of the Moon is Illuminated
Jul 23
Waxing Crescent
Jul 26
First Quarter
Aug 1
Full
Aug 9
Last Quarter
Aug 17
New

Hourly Weather History & Observations

Time (CDT) Temp. Heat Index Dew Point Humidity Pressure Visibility Wind Dir Wind Speed Gust Speed Precip Events Conditions
12:55 AM 80.2 °F 82.6 °F 66.9 °F 64% 30.01 in 10.0 mi SSE 5.8 mph - N/A   Clear
1:55 AM 78.8 °F - 69.3 °F 72% 30.02 in 10.0 mi SSE 5.8 mph - N/A   Clear
2:55 AM 77.2 °F - 69.6 °F 77% 30.01 in 10.0 mi SSE 4.6 mph - N/A   Clear
3:55 AM 77.2 °F - 70.3 °F 79% 30.02 in 10.0 mi South 5.8 mph - N/A   Clear
4:55 AM 77.4 °F - 71.1 °F 81% 30.03 in 10.0 mi South 4.6 mph - N/A   Clear
5:55 AM 76.5 °F - 71.4 °F 84% 30.05 in 10.0 mi South 4.6 mph - N/A   Clear
6:55 AM 77.2 °F - 71.8 °F 83% 30.06 in 10.0 mi SSW 5.8 mph - N/A   Clear
7:55 AM 79.9 °F - 72.3 °F 78% 30.06 in 10.0 mi Variable 5.8 mph - N/A   Partly Cloudy
8:55 AM 84.4 °F 90.3 °F 72.5 °F 67% 30.07 in 10.0 mi SW 9.2 mph - N/A   Partly Cloudy
9:55 AM 88.0 °F 95.1 °F 72.5 °F 60% 30.06 in 10.0 mi Variable 5.8 mph - N/A   Clear
10:55 AM 92.5 °F 99.0 °F 70.5 °F 49% 30.05 in 10.0 mi Calm Calm - N/A   Clear
11:55 AM 94.5 °F 97.5 °F 65.7 °F 39% 30.02 in 10.0 mi Variable 4.6 mph - N/A   Clear
12:55 PM 98.1 °F 99.6 °F 63.0 °F 31% 30.01 in 10.0 mi Variable 4.6 mph - N/A   Clear
1:55 PM 99.5 °F 99.9 °F 59.9 °F 27% 29.99 in 10.0 mi SE 9.2 mph - N/A   Clear
2:55 PM 101.1 °F 101.9 °F 60.6 °F 26% 29.97 in 10.0 mi SSW 9.2 mph - N/A   Clear
3:55 PM 100.4 °F 101.8 °F 61.3 °F 28% 29.95 in 10.0 mi SSE 8.1 mph - N/A   Clear
4:55 PM 101.7 °F 103.3 °F 61.3 °F 27% 29.94 in 10.0 mi SE 11.5 mph 17.3 mph N/A   Clear
5:55 PM 101.3 °F 104.0 °F 63.1 °F 29% 29.94 in 10.0 mi South 6.9 mph - N/A   Partly Cloudy
6:55 PM 99.0 °F 101.1 °F 63.7 °F 31% 29.94 in 10.0 mi SW 6.9 mph - N/A   Partly Cloudy
7:55 PM 95.7 °F 97.2 °F 63.1 °F 34% 29.94 in 10.0 mi Variable 4.6 mph - N/A   Clear
8:55 PM 90.5 °F 92.2 °F 64.2 °F 42% 29.95 in 10.0 mi South 3.5 mph - N/A   Clear
9:55 PM 87.1 °F 88.9 °F 65.1 °F 48% 29.96 in 10.0 mi South 4.6 mph - N/A   Clear
10:55 PM 86.2 °F 88.2 °F 65.7 °F 50% 29.97 in 10.0 mi SSE 6.9 mph - N/A   Clear
11:55 PM 82.9 °F 85.4 °F 66.6 °F 58% 29.97 in 10.0 mi South 4.6 mph - N/A   Clear